Ft Riley, KS

4:40 AM CDT on June 27, 2017 (GMT -0500)
Marshall Army Air Field

Weather History for KFRI - September, 2013

Change the Weather History Date:

Thursday, September 26, 2013

  Actual Average (KMHK) Record (KMHK)
Temperature  
Mean Temperature 78 °F -  
Max Temperature 90 °F 75 °F 90 °F (1998)
Min Temperature 67 °F 47 °F 35 °F (2000)
Cooling Degree Days 13    
Growing Degree Days 28 (Base 50)    
Moisture  
Dew Point 58 °F    
Average Humidity 53    
Maximum Humidity 72    
Minimum Humidity 35    
Precipitation  
Precipitation 0.00 in - - ()
Sea Level Pressure  
Sea Level Pressure 29.75 in    
Wind  
Wind Speed 19 mph (SSE)    
Max Wind Speed 24 mph    
Max Gust Speed 32 mph    
Visibility 10 miles    
Events      
Averages and records for this station are not official NWS values.
T = Trace of Precipitation, MM = Missing Value Source: NWS Daily Summary

Daily Weather History Graph

Daily Weather History Graph

Search for Another Location

Airport or City:

Trip Planner

Search our weather history database for the weather conditions in past years. The results will help you decide how hot, cold, wet, or windy it might be!

Date:

Astronomy

Sep. 26, 2013 Rise Set
Actual Time 7:18 AM CDT 7:17 PM CDT
Civil Twilight 6:52 AM CDT 7:43 PM CDT
Nautical Twilight 6:20 AM CDT 8:14 PM CDT
Astronomical Twilight 5:49 AM CDT 8:46 PM CDT
Moon No Moon Rise 2:09 PM CDT (9/26)
Length of Visible Light 12h 51m
Length of Day
11h 58m
Waning Gibbous, 54% of the Moon is Illuminated
Sep 26
Waning Gibbous
Sep 26
Last Quarter
Oct 4
New
Oct 11
First Quarter
Oct 18
Full

Hourly Weather History & Observations

Time (CDT) Temp. Heat Index Dew Point Humidity Pressure Visibility Wind Dir Wind Speed Gust Speed Precip Events Conditions
12:58 AM 68.9 °F - 58.1 °F 68% 29.73 in 10.0 mi SE 16.1 mph - N/A   Clear
1:58 AM 68.4 °F - 57.9 °F 69% 29.73 in 10.0 mi SE 23.0 mph 28.8 mph N/A   Clear
2:58 AM 67.3 °F - 58.1 °F 72% 29.74 in 10.0 mi SE 20.7 mph 26.5 mph N/A   Clear
3:58 AM 67.3 °F - 57.7 °F 71% 29.74 in 10.0 mi SSE 19.6 mph 25.3 mph N/A   Clear
4:58 AM 67.1 °F - 57.6 °F 71% 29.73 in 10.0 mi SSE 18.4 mph 24.2 mph N/A   Clear
5:58 AM 67.3 °F - 57.7 °F 71% 29.73 in 10.0 mi SSE 23.0 mph 27.6 mph N/A   Clear
6:58 AM 67.5 °F - 57.2 °F 70% 29.74 in 10.0 mi SE 19.6 mph 32.2 mph N/A   Clear
7:58 AM 68.5 °F - 55.6 °F 63% 29.77 in 10.0 mi SE 24.2 mph 29.9 mph N/A   Clear
8:58 AM 72.0 °F - 55.6 °F 56% 29.77 in 10.0 mi SSE 19.6 mph 28.8 mph N/A   Clear
9:58 AM 75.2 °F - 55.9 °F 51% 29.77 in 10.0 mi SSE 17.3 mph 24.2 mph N/A   Clear
10:58 AM 79.5 °F - 56.7 °F 45% 29.77 in 10.0 mi South 18.4 mph 26.5 mph N/A   Clear
11:58 AM 84.4 °F 83.4 °F 56.5 °F 38% 29.77 in 10.0 mi SSE 19.6 mph 24.2 mph N/A   Clear
12:58 PM 86.5 °F 85.4 °F 57.6 °F 37% 29.76 in 10.0 mi SSE 16.1 mph 24.2 mph N/A   Clear
1:58 PM 88.0 °F 86.9 °F 57.6 °F 36% 29.74 in 10.0 mi SSE 20.7 mph 27.6 mph N/A   Clear
2:58 PM 89.6 °F 88.6 °F 58.3 °F 35% 29.72 in 10.0 mi SSE 20.7 mph 29.9 mph N/A   Clear
3:58 PM 89.8 °F 89.1 °F 59.9 °F 36% 29.71 in 10.0 mi SSE 16.1 mph 26.5 mph N/A   Clear
4:58 PM 88.5 °F 88.1 °F 59.5 °F 38% 29.70 in 10.0 mi SSE 18.4 mph 32.2 mph N/A   Clear
5:58 PM 87.1 °F 87.0 °F 60.8 °F 41% 29.71 in 10.0 mi SSE 16.1 mph 27.6 mph N/A   Clear
6:58 PM 83.8 °F 84.1 °F 61.0 °F 46% 29.73 in 10.0 mi SSE 16.1 mph 23.0 mph N/A   Clear
7:58 PM 81.0 °F 81.7 °F 61.0 °F 50% 29.73 in 10.0 mi SSE 15.0 mph 20.7 mph N/A   Clear
8:58 PM 79.3 °F - 61.0 °F 53% 29.76 in 10.0 mi SSE 12.7 mph 20.7 mph N/A   Partly Cloudy
9:58 PM 78.4 °F - 60.3 °F 53% 29.78 in 10.0 mi SSE 15.0 mph - N/A   Clear
10:58 PM 78.1 °F - 59.4 °F 52% 29.78 in 10.0 mi SSE 16.1 mph 24.2 mph N/A   Clear
11:58 PM 77.0 °F - 59.2 °F 54% 29.79 in 10.0 mi SSE 16.1 mph 23.0 mph N/A   Clear